www.pogodaiklimat.ru

Погода и климат >> Архив погоды >> Россия >> Калмыкия >> Яшкуль


АРХИВ ПОГОДЫ в Яшкуле

Время (UTC), дата Ветер
(напр.,м/с)
 
Видим.   Явления Облачность Т
(С)
Тd
(С)
f
(%)
Тe
(С)
Тes
(С)
Комфортность P
(гПа)
Po
(гПа)
Тmin
(С)
Tmax
(С)
R
(мм)
R24
(мм)
S
(см)
09 10.12 ЮВ 3 500 м туман н/о +1.8 +1.7 99 -3 -3 по сезону 1023.3 1024.2
12 10.12 В 1 20 км {туман} ясно +4.8 +4.6 99 +3 +4 тепло 1021.8 1022.7
15 10.12 В 4 20 км {туман} ясно +3.1 +1.9 92 -2 -2 по сезону 1022.1 1023.0 +5.5
18 10.12 В 4 20 км ясно +0.3 -0.4 95 -5 -5 по сезону 1020.4 1021.3
21 10.12 В 5 н/о н/о +2.0 +1.7 98 -4 -4 по сезону 1019.5 1020.4
00 11.12 В 5 4000 м дымка 10/0
[Ac As]
+3.2 +3.0 99 -2 -2 по сезону 1019.8 1020.7
03 11.12 В 3 20 км 10/0
[Ac As]
+3.1 +2.8 98 -1 -1 по сезону 1020.5 1021.3 +0.2
06 11.12 В 2 500 м туман н/о +3.3 +3.0 98 0 0 тепло 1023.1 1024.0
09 11.12 З 2 20 км {туман} 10/0
[Ac As]
+5.0 +4.3 95 +2 +3 тепло 1024.5 1025.4
12 11.12 З 4 20 км {туман} 6/0
[Ac trans]
+6.9 +1.9 70 +4 +4 тепло 1025.9 1026.8
15 11.12 ЮЗ 3 20 км {туман} ясно +2.4 -0.4 82 -2 -2 по сезону 1027.5 1028.4 +7.7
18 11.12 ЮЗ 1 20 км ясно -0.1 -1.9 88 -2 -2 по сезону 1028.1 1029.0
21 11.12 ЮВ 1 20 км 10/0
[Ac As]
-0.6 -1.6 93 -3 -3 по сезону 1028.0 1028.9
00 12.12 ЮВ 2 20 км 10/0
[Ac As]
+0.4 -1.2 89 -3 -3 по сезону 1028.3 1029.2
03 12.12 ЮВ 3 20 км 8/0
[Ac trans]
-0.1 -1.1 93 -5 -5 по сезону 1028.2 1029.1 -0.9
06 12.12 Ю 3 20 км 8/0
[Ac trans]
+1.7 +0.1 89 -3 -2 по сезону 1027.9 1028.8
09 12.12 Ю 3 20 км 10/0
[Ac As]
+5.1 +1.9 80 +2 +2 тепло 1027.3 1028.1
12 12.12 Ю 3 20 км 10/0
[Ac As]
+6.4 +2.0 73 +3 +4 тепло 1027.2 1028.1
15 12.12 ЮВ 3 20 км 10/0
[Ac As]
+4.7 +3.3 91 +1 +1 тепло 1027.4 1028.3 +6.4
18 12.12 Ю 4 10 км слабый дождь 10/10 300 м
[Frnb Ns]
+4.6 +3.5 93 0 0 тепло 1027.4 1028.3
21 12.12 Ю 3 20 км {дождь} 10/0
[Ac As]
+4.4 +2.3 86 +1 +1 тепло 1026.3 1027.2
00 13.12 ЮВ 4 20 км {дождь} 10/0
[Ac As]
+4.2 +3.1 93 -0 -0 тепло 1025.9 1026.7
03 13.12 ЮВ 4 20 км {дождь} 10/0
[Ac As]
+4.0 +2.8 92 -1 -1 по сезону 1025.5 1026.4 +3.9 1
06 13.12 Ю 5 500 м туман н/о +4.4 +4.1 98 -1 -1 по сезону 1026.1 1027.0 +3.6
09 13.12 Ю 6
{11}
500 м туман н/о +6.2 +5.1 93 +1 +1 тепло 1025.0 1025.9
12 13.12 Ю 3 20 км {туман} 10/0
[Ac As]
+8.0 +5.9 87 +5 +5 тепло 1024.3 1025.2
15 13.12 ЮВ 3 20 км {туман} 10/0
[Ac As]
+6.5 +4.6 88 +3 +3 тепло 1024.9 1025.8 +8.0
18 13.12 ЮВ 5 20 км 10/0
[Ac As]
+4.1 +2.9 92 -1 -1 по сезону 1024.7 1025.6
21 13.12 В 5 20 км 10/0
[Ac As]
+3.6 +2.6 93 -2 -2 по сезону 1024.4 1025.3
00 14.12 В 6-10
{11}
20 км 10/0
[Ac As]
+5.0 +3.2 88 -0 -0 тепло 1024.1 1025.0
03 14.12 В 6
{12}
20 км 10/0
[Ac As]
+5.3 +2.9 84 0 0 тепло 1024.0 1024.9 +3.1
06 14.12 ЮВ 6
{12}
20 км 10/0
[Ac As]
+5.1 +2.8 85 0 0 тепло 1024.6 1025.5
09 14.12 ЮВ 8-12
{14}
20 км 10/6 300 м
[St Ac As]
+6.1 +2.4 77 +1 +1 тепло 1023.6 1024.5
12 14.12 В 7-11
{13}
20 км 10/8 300 м
[St Ac As]
+5.2 +2.1 80 -0 -0 по сезону 1022.5 1023.4
15 14.12 В 7-12
{14}
20 км 10/0
[Ac As]
+2.7 0.0 82 -4 -4 по сезону 1023.4 1024.3 +6.2
18 14.12 В 6-11
{14}
20 км 10/0
[]
+2.0 -0.4 84 -4 -4 по сезону 1022.7 1023.6
21 14.12 В 6
{12}
20 км 10/0
[Ac As]
+1.8 -0.2 87 -4 -4 по сезону 1021.9 1022.7
00 15.12 В 6
{11}
20 км 10/0
[Ac As]
+0.3 -1.5 88 -6 -6 по сезону 1022.0 1022.9
03 15.12 В 7-11
{11}
20 км 10/0
[Ac As]
+1.0 -0.2 92 -6 -6 по сезону 1022.0 1022.9 +0.2
06 15.12 В 7-11
{12}
20 км 10/0
[Ac As]
+1.0 -0.2 92 -6 -6 по сезону 1022.6 1023.5
09 15.12 В 6-11
{13}
20 км 10/0
[Ac As]
+2.9 +1.3 89 -3 -3 по сезону 1022.1 1023.0
12 15.12 В 6-11
{12}
20 км 10/0
[Ac As]
+3.3 +1.7 89 -2 -2 по сезону 1022.7 1023.6
15 15.12 В 6-10
{13}
20 км 10/0
[Ac As]
+2.8 +1.1 89 -3 -3 по сезону 1023.8 1024.7 +3.9
18 15.12 В 5
{12}
20 км 10/0
[Ac As]
+2.4 +0.6 88 -3 -3 по сезону 1024.0 1024.9
21 15.12 В 4
{11}
20 км 10/0
[Ac As]
+2.3 +0.4 87 -3 -3 по сезону 1024.2 1025.1
00 16.12 В 4 20 км 10/0
[Ac As]
+2.6 +0.4 85 -2 -2 по сезону 1024.7 1025.6
03 16.12 В 3 20 км 10/0
[Ac As]
+2.9 +1.1 88 -1 -1 тепло 1025.6 1026.5 +2.1
06 16.12 В 4 20 км 10/0
[Ac As]
+2.5 +1.8 95 -3 -2 по сезону 1026.2 1027.1
09 16.12 В 4 4000 м дымка 10/0
[Ac As]
+4.3 +3.6 95 -0 0 по сезону 1025.3 1026.2
12 16.12 В 5 20 км 10/0
[Ac As]
+4.9 +4.0 94 0 0 по сезону 1025.2 1026.1
15 16.12 В 5 20 км 10/0
[Ac und]
+3.9 +3.3 96 -1 -1 по сезону 1026.5 1027.4 +5.7
18 16.12 В 6
{10}
20 км 10/0
[Ac As]
+3.1 +2.4 95 -3 -3 по сезону 1026.3 1027.2
21 16.12 В 4
{11}
70 км слабая морось 10/0
[Ac As]
+2.7 +2.1 96 -2 -2 по сезону 1026.5 1027.4
00 17.12 В 4 20 км 10/0
[Ac As]
+2.3 +1.2 92 -3 -3 по сезону 1026.7 1027.6
03 17.12 В 6 20 км 10/0
[Ac As]
+1.3 -0.2 90 -5 -5 по сезону 1027.0 1027.9 +1.3
06 17.12 В 5 20 км 10/0
[Ac As]
+1.4 -0.3 88 -4 -4 по сезону 1027.3 1028.2 +0.9

 

Местоположение метеостанции Яшкуль (Калмыкия, Россия): широта 46.18 долгота 45.35 высота над уровнем моря -7 м.

В архиве по умолчанию представлена погода в Яшкуле за последнюю неделю. Архивные данные за месяц целиком и за предыдущие месяцы, начиная с января 2011 года, Вы можете получить, выбрав интересующий диапазон дат из раскрывающегося списка и нажав кнопку "Ввод!".

Внимание! Время в таблицах - всемирное. Для получения местного времени необходимо прибавить поправку, которая в Яшкуле равна 3 ч.

Смотрите также архив погоды в соседних городах и на ближайших метеорологических станциях:

Погода в Утте (Калмыкия, Россия) (56 км)
Погода в Ики-Буруле (Калмыкия, Россия) (70 км)
Погода в Элисте (Калмыкия, Россия) (81 км)
Погода в Комсомольском (Калмыкия, Россия) (106 км)
Погода в Арзгире (Ставропольский край, Россия) (124 км)
Погода в Юсте (Калмыкия, Россия) (129 км)
Погода в Ремонтном (Ростовская область, Россия) (136 км)
Погода в Кетченерах (Калмыкия, Россия) (140 км)
Погода в Лимане (Астраханская область, Россия) (151 км)
Погода в Дивном (Ставропольский край, Россия) (157 км)

Пояснения к столбцам:

Ветер - указаны скорость ветра в м/с - средняя за 10 мин, порывы в срок и между сроками (в фигурных скобках) и направление, откуда дует ветер: С - северный, СВ - северо-восточный, В - восточный, ЮВ - юго-восточный, Ю - южный, ЮЗ - юго-западный, З - западный, СЗ - северо-западный.
Видимость - горизонтальная дальность видимости в метрах или километрах. При видимости от 1 до 10 км при отсутствии осадков обычно наблюдается дымка, при ухудшении видимости до 1 км и менее - туман. В сухую погоду видимость может ухудшаться дымом, пылью или мглою.
Явления - указаны атмосферные явления, наблюдавшиеся в срок или в последний час перед сроком; фигурными скобками обозначены явления, наблюдавшиеся между сроками (за 1-3 часа до срока); квадратными скобками обозначены град или гололедные отложения с указанием их диаметра в мм.
Облачность - указаны через наклонную черту общая и нижняя облачность в баллах и высота нижней границы облаков в метрах; квадратными скобками обозначены формы облаков: Ci - перистые, Cs - перисто-слоистые, Cc - перисто-кучевые, Ac - высококучевые, As - высокослоистые, Sc - слоисто-кучевые, Ns - слоисто-дождевые, Cu - кучевые, Cb - кучево-дождевые. Подробнее классификацию облаков см. в Атласе облаков (PDF).
T - Температура воздуха - температура, измеренная на высоте 2 м над землей.
Td - Температура точки росы - температура, при понижении до которой содержащийся в воздухе водяной пар достигнет насыщения.
f - Относительная влажность воздуха - влажноcть воздуха, измеренная на высоте 2 м над землей.
Te - Эффективная температура - температура, которую ощущает одетый по сезону человек в тени. Характеристика душности погоды. При расчете учитывается влияние влажности воздуха и скорости ветра на теплоощущения человека.
Tes - Эффективная температура на солнце - температура, которую ощущает человек, с поправкой на солнечный нагрев. Характеристика знойности погоды. Зависит от высоты солнца над горизонтом, облачности и скорости ветра. Ночью, в пасмурную погоду, а также при ветре 12 м/с и более поправка равна нулю.
P - Атмосферное давление - приведенное к уровню моря атмосферное давление.
Po - Атмосферное давление - измеренное на уровне метеостанции атмосферное давление.
Tmin - Минимальная температура - минимум температуры воздуха на высоте 2 м над землей.
Tmax - Максимальная температура - максимум температуры воздуха на высоте 2 м над землей.
R - Количество осадков - Количество выпавших осадков за период времени, мм. При наведении курсора мыши на число - период времени, за который выпало указанное количество осадков.
R24 - Количество осадков - Количество выпавших осадков за 24 часа, мм.
S - Снежный покров - Высота снежного покрова, см. При наведении курсора мыши на число - состояние снежного покрова и степень покрытия местности в баллах.